BAW1EM EBBR-EGLL

Flight info

Callsign BAW1EM
Flight time 0h 46m
Altitude 24000
Route HELEN L179 COA L608 LOGAN
Aircraft B77W/H-SDE1E2E3FGHIJ2J3J4J5M1RWXY/LB1D1

Departure

Time 2026-05-06 18:00
Airport Brussels Airport (EBBR)

Arrival

Time 2026-05-06 18:46
Airport London Heathrow Airport (EGLL)
Time Latitude Longitude Altitude Speed Heading
2026-05-06 17:38 50.90296 4.48699 138 ft 0 kts 336°
2026-05-06 17:46 50.90292 4.48702 139 ft 2 kts 336°
2026-05-06 17:46 50.90277 4.48711 140 ft 2 kts 338°
2026-05-06 17:46 50.90261 4.48719 142 ft 2 kts 343°
2026-05-06 17:47 50.90245 4.48723 143 ft 2 kts 359°
2026-05-06 17:47 50.90229 4.48716 144 ft 2 kts 44°
2026-05-06 17:47 50.90223 4.48701 144 ft 1 kts 55°
2026-05-06 17:47 50.90223 4.48700 144 ft 0 kts 53°
2026-05-06 17:50 50.90224 4.48705 144 ft 1 kts 60°
2026-05-06 17:50 50.90234 4.48737 144 ft 5 kts 63°
2026-05-06 17:50 50.90255 4.48806 144 ft 9 kts 64°
2026-05-06 17:50 50.90285 4.48907 144 ft 12 kts 65°
2026-05-06 17:51 50.90322 4.49037 145 ft 15 kts 66°
2026-05-06 17:51 50.90365 4.49192 144 ft 15 kts 66°
2026-05-06 17:51 50.90405 4.49334 142 ft 12 kts 65°
2026-05-06 17:51 50.90404 4.49406 142 ft 3 kts 121°
2026-05-06 17:52 50.90398 4.49417 143 ft 0 kts 127°
2026-05-06 17:52 50.90387 4.49429 144 ft 5 kts 148°
2026-05-06 17:52 50.90342 4.49433 147 ft 9 kts 187°
2026-05-06 17:52 50.90260 4.49399 150 ft 16 kts 195°
2026-05-06 17:53 50.90135 4.49345 156 ft 18 kts 195°
2026-05-06 17:53 50.90026 4.49299 161 ft 14 kts 194°
2026-05-06 17:53 50.89938 4.49264 165 ft 12 kts 194°
2026-05-06 17:53 50.89871 4.49238 168 ft 8 kts 194°
2026-05-06 17:54 50.89821 4.49218 169 ft 7 kts 194°
2026-05-06 17:54 50.89767 4.49196 169 ft 9 kts 194°
2026-05-06 17:54 50.89697 4.49168 169 ft 11 kts 194°
2026-05-06 17:54 50.89633 4.49125 170 ft 10 kts 208°
2026-05-06 17:55 50.89572 4.49072 170 ft 11 kts 208°
2026-05-06 17:55 50.89508 4.49037 170 ft 8 kts 192°
2026-05-06 17:55 50.89454 4.49020 171 ft 7 kts 191°
2026-05-06 17:55 50.89409 4.49006 172 ft 6 kts 191°
2026-05-06 17:56 50.89373 4.48993 174 ft 5 kts 195°
2026-05-06 17:56 50.89335 4.48972 175 ft 6 kts 203°
2026-05-06 17:56 50.89309 4.48932 175 ft 5 kts 237°
2026-05-06 17:56 50.89286 4.48868 176 ft 9 kts 241°
2026-05-06 17:57 50.89264 4.48773 178 ft 10 kts 253°
2026-05-06 17:57 50.89238 4.48654 181 ft 13 kts 250°
2026-05-06 17:57 50.89200 4.48493 181 ft 19 kts 249°
2026-05-06 17:57 50.89151 4.48280 183 ft 22 kts 250°
2026-05-06 17:58 50.89094 4.48020 195 ft 21 kts 250°
2026-05-06 17:58 50.89045 4.47915 190 ft 10 kts 207°
2026-05-06 17:58 50.88969 4.47931 183 ft 13 kts 149°
2026-05-06 17:58 50.88928 4.48066 181 ft 15 kts 99°
2026-05-06 17:59 50.88938 4.48191 182 ft 0 kts 69°
2026-05-06 17:59 50.89003 4.48471 183 ft 69 kts 70°
2026-05-06 17:59 50.89279 4.49662 183 ft 157 kts 70°
2026-05-06 17:59 50.89737 4.51601 556 ft 216 kts 68°
2026-05-06 18:00 50.90328 4.54048 1472 ft 259 kts 66°
2026-05-06 18:00 50.91421 4.56307 2223 ft 245 kts 36°
2026-05-06 18:00 50.92850 4.57172 2928 ft 204 kts
2026-05-06 18:00 50.94224 4.56533 3591 ft 214 kts 324°
2026-05-06 18:01 50.95289 4.54883 4287 ft 214 kts 313°
2026-05-06 18:01 50.96273 4.53093 4945 ft 215 kts 311°
2026-05-06 18:01 50.97230 4.51257 5529 ft 220 kts 310°
2026-05-06 18:01 50.98173 4.49241 5819 ft 235 kts 304°
2026-05-06 18:02 50.99051 4.47056 5906 ft 234 kts 303°
2026-05-06 18:02 50.99916 4.44872 5944 ft 232 kts 304°
2026-05-06 18:02 51.00788 4.42736 5969 ft 230 kts 304°
2026-05-06 18:02 51.01670 4.40620 6042 ft 229 kts 305°
2026-05-06 18:03 51.02554 4.38488 6549 ft 234 kts 304°
2026-05-06 18:03 51.03457 4.36297 7090 ft 239 kts 304°
2026-05-06 18:03 51.04365 4.34073 7628 ft 242 kts 304°
2026-05-06 18:03 51.05291 4.31807 8177 ft 244 kts 304°
2026-05-06 18:04 51.06216 4.29563 8705 ft 247 kts 304°
2026-05-06 18:04 51.07159 4.27261 9265 ft 251 kts 304°
2026-05-06 18:04 51.08118 4.24918 9812 ft 253 kts 304°
2026-05-06 18:04 51.09082 4.22559 10335 ft 255 kts 304°
2026-05-06 18:05 51.10053 4.20189 10839 ft 256 kts 304°
2026-05-06 18:05 51.11028 4.17800 11367 ft 257 kts 303°
2026-05-06 18:05 51.12003 4.15403 11892 ft 259 kts 303°
2026-05-06 18:05 51.12989 4.12984 12441 ft 262 kts 303°
2026-05-06 18:06 51.14003 4.10495 12995 ft 272 kts 303°
2026-05-06 18:06 51.15038 4.07948 13587 ft 274 kts 302°
2026-05-06 18:06 51.16063 4.05428 14068 ft 274 kts 302°
2026-05-06 18:06 51.17104 4.02858 14582 ft 276 kts 302°
2026-05-06 18:07 51.18154 4.00271 15090 ft 279 kts 302°
2026-05-06 18:07 51.19212 3.97658 15625 ft 282 kts 302°
2026-05-06 18:07 51.20289 3.95003 16174 ft 291 kts 302°
2026-05-06 18:07 51.21404 3.92231 16739 ft 301 kts 301°
2026-05-06 18:08 51.22432 3.89308 17288 ft 302 kts 297°
2026-05-06 18:08 51.23381 3.86302 17862 ft 303 kts 296°
2026-05-06 18:08 51.24282 3.83310 18392 ft 304 kts 295°
2026-05-06 18:08 51.25087 3.80138 19035 ft 312 kts 289°
2026-05-06 18:09 51.25789 3.76821 19688 ft 318 kts 288°
2026-05-06 18:09 51.26510 3.73466 20341 ft 321 kts 289°
2026-05-06 18:09 51.27257 3.70099 21008 ft 322 kts 289°
2026-05-06 18:09 51.28009 3.66702 21685 ft 325 kts 288°
2026-05-06 18:10 51.28761 3.63271 22382 ft 329 kts 288°
2026-05-06 18:10 51.29518 3.59797 23088 ft 333 kts 288°
2026-05-06 18:10 51.30291 3.56263 23631 ft 342 kts 288°
2026-05-06 18:10 51.31084 3.52636 23810 ft 348 kts 288°
2026-05-06 18:11 51.31878 3.49001 23906 ft 345 kts 288°
2026-05-06 18:11 51.32667 3.45364 23894 ft 358 kts 288°
2026-05-06 18:11 51.33520 3.41411 23926 ft 390 kts 287°
2026-05-06 18:11 51.34384 3.37104 23959 ft 420 kts 288°
2026-05-06 18:12 51.35463 3.32680 23961 ft 430 kts 290°
2026-05-06 18:12 51.36541 3.28225 23943 ft 426 kts 289°
2026-05-06 18:12 51.37569 3.23871 23929 ft 422 kts 289°
2026-05-06 18:12 51.38613 3.19483 23929 ft 420 kts 289°
2026-05-06 18:13 51.39651 3.15106 23930 ft 421 kts 289°
2026-05-06 18:13 51.40689 3.10705 23940 ft 422 kts 289°
2026-05-06 18:13 51.41729 3.06294 23941 ft 422 kts 289°
2026-05-06 18:13 51.42764 3.01899 23940 ft 421 kts 289°
2026-05-06 18:14 51.43792 2.97513 23944 ft 421 kts 289°
2026-05-06 18:14 51.44826 2.93103 23949 ft 421 kts 289°
2026-05-06 18:14 51.45855 2.88702 23951 ft 422 kts 289°
2026-05-06 18:14 51.46881 2.84297 23947 ft 421 kts 289°
2026-05-06 18:15 51.47909 2.79887 23949 ft 421 kts 289°
2026-05-06 18:15 51.48929 2.75495 23948 ft 421 kts 289°
2026-05-06 18:15 51.49948 2.71091 23949 ft 421 kts 289°
2026-05-06 18:15 51.50959 2.66732 23951 ft 422 kts 289°
2026-05-06 18:16 51.51976 2.62321 23950 ft 422 kts 289°
2026-05-06 18:16 51.52992 2.57905 23950 ft 421 kts 289°
2026-05-06 18:16 51.54006 2.53496 23951 ft 421 kts 289°
2026-05-06 18:16 51.55019 2.49086 23952 ft 421 kts 289°
2026-05-06 18:17 51.56031 2.44668 23954 ft 422 kts 289°
2026-05-06 18:17 51.57043 2.40244 23959 ft 421 kts 289°
2026-05-06 18:17 51.58053 2.35817 23958 ft 421 kts 289°
2026-05-06 18:17 51.59059 2.31394 23957 ft 421 kts 289°
2026-05-06 18:18 51.60066 2.26968 23960 ft 421 kts 289°
2026-05-06 18:18 51.61073 2.22527 23967 ft 422 kts 289°
2026-05-06 18:18 51.62076 2.18089 23958 ft 421 kts 289°
2026-05-06 18:18 51.63085 2.13631 23978 ft 440 kts 289°
2026-05-06 18:19 51.64138 2.08950 23979 ft 445 kts 289°
2026-05-06 18:19 51.64836 2.05851 23971 ft 443 kts 289°
2026-05-06 18:19 51.66225 1.99649 23955 ft 438 kts 289°
2026-05-06 18:19 51.67260 1.95020 23959 ft 438 kts 289°
2026-05-06 18:20 51.68293 1.90392 23962 ft 438 kts 289°
2026-05-06 18:20 51.69321 1.85777 23964 ft 439 kts 289°
2026-05-06 18:20 51.70351 1.81137 23967 ft 438 kts 289°
2026-05-06 18:20 51.71362 1.76582 23968 ft 438 kts 289°
2026-05-06 18:21 51.72387 1.71943 23855 ft 437 kts 289°
2026-05-06 18:21 51.73401 1.67345 23523 ft 431 kts 288°
2026-05-06 18:21 51.73969 1.64296 23281 ft 427 kts 283°
2026-05-06 18:21 51.74572 1.58005 22800 ft 421 kts 271°
2026-05-06 18:22 51.74520 1.54890 22577 ft 420 kts 264°
2026-05-06 18:22 51.74123 1.50214 22239 ft 419 kts 261°
2026-05-06 18:22 51.73714 1.45568 21901 ft 417 kts 264°
2026-05-06 18:22 51.73455 1.40919 21556 ft 415 kts 264°
2026-05-06 18:23 51.73154 1.36287 21211 ft 413 kts 264°
2026-05-06 18:23 51.72851 1.31684 20840 ft 411 kts 264°
2026-05-06 18:23 51.72557 1.27165 20483 ft 409 kts 264°
2026-05-06 18:23 51.72256 1.22632 20127 ft 403 kts 264°
2026-05-06 18:24 51.71960 1.18172 19770 ft 396 kts 264°
2026-05-06 18:24 51.71665 1.13783 19424 ft 394 kts 264°
2026-05-06 18:24 51.71368 1.09383 19085 ft 394 kts 264°
2026-05-06 18:24 51.71072 1.05013 18809 ft 385 kts 264°
2026-05-06 18:25 51.70782 1.00777 18494 ft 375 kts 264°
2026-05-06 18:25 51.70500 0.96667 18138 ft 366 kts 264°
2026-05-06 18:25 51.70222 0.92625 17728 ft 358 kts 264°
2026-05-06 18:25 51.69946 0.88656 17350 ft 352 kts 264°
2026-05-06 18:26 51.69675 0.84763 16974 ft 346 kts 264°
2026-05-06 18:26 51.69410 0.80978 16606 ft 341 kts 264°
2026-05-06 18:26 51.69144 0.77195 16232 ft 336 kts 264°
2026-05-06 18:26 51.68881 0.73477 15878 ft 332 kts 264°
2026-05-06 18:27 51.68621 0.69805 15518 ft 328 kts 264°
2026-05-06 18:27 51.68362 0.66180 15163 ft 322 kts 264°
2026-05-06 18:27 51.68118 0.62799 14664 ft 287 kts 264°
2026-05-06 18:27 51.67897 0.59725 14093 ft 268 kts 265°
2026-05-06 18:28 51.67687 0.56791 13535 ft 260 kts 265°
2026-05-06 18:28 51.67481 0.53913 12991 ft 258 kts 265°
2026-05-06 18:28 51.67279 0.51044 12453 ft 257 kts 265°
2026-05-06 18:28 51.67098 0.48161 11942 ft 254 kts 266°
2026-05-06 18:29 51.66931 0.45373 11455 ft 252 kts 266°
2026-05-06 18:29 51.66766 0.42563 10931 ft 251 kts 265°
2026-05-06 18:29 51.66530 0.39786 10433 ft 249 kts 262°
2026-05-06 18:29 51.66249 0.37039 9931 ft 247 kts 262°
2026-05-06 18:30 51.65949 0.34265 9452 ft 256 kts 261°
2026-05-06 18:30 51.65643 0.31510 9216 ft 249 kts 261°
2026-05-06 18:30 51.65338 0.28793 9086 ft 240 kts 261°
2026-05-06 18:30 51.65037 0.26151 9028 ft 238 kts 261°
2026-05-06 18:31 51.64741 0.23566 9004 ft 239 kts 261°
2026-05-06 18:31 51.64437 0.20880 8703 ft 246 kts 261°
2026-05-06 18:31 51.64132 0.18157 8410 ft 246 kts 261°
2026-05-06 18:31 51.63834 0.15459 8175 ft 243 kts 261°
2026-05-06 18:32 51.63544 0.12788 8067 ft 241 kts 261°
2026-05-06 18:32 51.63260 0.10143 8026 ft 240 kts 261°
2026-05-06 18:32 51.62973 0.07457 8023 ft 243 kts 261°
2026-05-06 18:32 51.62688 0.04767 8008 ft 244 kts 261°
2026-05-06 18:33 51.62402 0.02053 7799 ft 247 kts 261°
2026-05-06 18:33 51.62123 -0.00625 7539 ft 245 kts 261°
2026-05-06 18:33 51.61848 -0.03315 7266 ft 243 kts 261°
2026-05-06 18:33 51.61581 -0.05980 7111 ft 240 kts 261°
2026-05-06 18:34 51.61315 -0.08645 7052 ft 241 kts 261°
2026-05-06 18:34 51.61048 -0.11324 7066 ft 242 kts 261°
2026-05-06 18:34 51.60780 -0.13997 7057 ft 242 kts 261°
2026-05-06 18:34 51.60508 -0.16673 7050 ft 242 kts 261°
2026-05-06 18:35 51.60236 -0.19348 7052 ft 242 kts 262°
2026-05-06 18:35 51.60034 -0.22045 7046 ft 242 kts 264°
2026-05-06 18:35 51.59874 -0.24696 7051 ft 241 kts 265°
2026-05-06 18:35 51.59723 -0.27378 6995 ft 241 kts 266°
2026-05-06 18:36 51.59574 -0.30067 6996 ft 241 kts 265°
2026-05-06 18:36 51.59425 -0.32767 6996 ft 241 kts 266°
2026-05-06 18:36 51.59273 -0.35451 6996 ft 240 kts 266°
2026-05-06 18:36 51.59120 -0.38133 6991 ft 240 kts 266°
2026-05-06 18:37 51.58963 -0.40809 6990 ft 241 kts 266°
2026-05-06 18:37 51.58801 -0.43488 6996 ft 240 kts 266°
2026-05-06 18:37 51.58637 -0.46165 6994 ft 240 kts 266°
2026-05-06 18:37 51.58473 -0.48800 6996 ft 240 kts 266°
2026-05-06 18:38 51.58303 -0.51494 6722 ft 242 kts 266°
2026-05-06 18:38 51.58132 -0.54166 6450 ft 239 kts 265°
2026-05-06 18:38 51.57962 -0.56805 6152 ft 237 kts 266°
2026-05-06 18:38 51.57791 -0.59442 5872 ft 236 kts 265°
2026-05-06 18:39 51.57622 -0.62064 5582 ft 237 kts 265°
2026-05-06 18:39 51.57453 -0.64678 5303 ft 235 kts 265°
2026-05-06 18:39 51.57285 -0.67289 5123 ft 231 kts 266°
2026-05-06 18:40 51.56307 -0.71940 5009 ft 209 kts 232°
2026-05-06 18:40 51.55241 -0.73417 4997 ft 197 kts 213°
2026-05-06 18:40 51.54048 -0.74544 5002 ft 199 kts 210°
2026-05-06 18:40 51.52857 -0.75735 4662 ft 201 kts 214°
2026-05-06 18:41 51.51714 -0.76961 4299 ft 195 kts 215°
2026-05-06 18:41 51.50495 -0.77917 3930 ft 197 kts 195°
2026-05-06 18:41 51.49143 -0.78074 3591 ft 197 kts 171°
2026-05-06 18:41 51.47856 -0.77406 3291 ft 195 kts 148°
2026-05-06 18:42 51.46754 -0.76190 3138 ft 193 kts 138°
2026-05-06 18:42 51.46087 -0.74403 3033 ft 186 kts 96°
2026-05-06 18:42 51.46258 -0.72425 3046 ft 180 kts 65°
2026-05-06 18:42 51.46753 -0.70558 3021 ft 183 kts 64°
2026-05-06 18:43 51.47173 -0.68664 2917 ft 176 kts 70°
2026-05-06 18:43 51.47472 -0.66758 2737 ft 175 kts 74°
2026-05-06 18:43 51.47666 -0.64887 2512 ft 167 kts 81°
2026-05-06 18:43 51.47698 -0.63041 2211 ft 163 kts 87°
2026-05-06 18:44 51.47691 -0.61240 1967 ft 163 kts 86°
2026-05-06 18:44 51.47703 -0.59408 1755 ft 162 kts 86°
2026-05-06 18:44 51.47707 -0.57623 1521 ft 156 kts 85°
2026-05-06 18:44 51.47718 -0.55900 1315 ft 156 kts 85°
2026-05-06 18:45 51.47731 -0.54139 1084 ft 158 kts 85°
2026-05-06 18:45 51.47739 -0.52399 808 ft 158 kts 85°
2026-05-06 18:45 51.47752 -0.50645 470 ft 156 kts 88°
2026-05-06 18:45 51.47753 -0.48943 166 ft 150 kts 88°
2026-05-06 18:46 51.47759 -0.47275 99 ft 149 kts 90°
2026-05-06 18:46 51.47759 -0.45990 97 ft 57 kts 89°
2026-05-06 18:46 51.47759 -0.45610 95 ft 19 kts 95°
2026-05-06 18:46 51.47703 -0.45486 97 ft 11 kts 155°
2026-05-06 18:47 51.47646 -0.45472 96 ft 5 kts 180°
2026-05-06 18:47 51.47618 -0.45485 99 ft 4 kts 208°
2026-05-06 18:47 51.47605 -0.45519 98 ft 4 kts 250°
2026-05-06 18:47 51.47596 -0.45581 96 ft 8 kts 259°
2026-05-06 18:48 51.47593 -0.45688 96 ft 12 kts 271°
2026-05-06 18:48 51.47595 -0.45848 99 ft 16 kts 270°
2026-05-06 18:48 51.47595 -0.46013 99 ft 14 kts 269°
2026-05-06 18:48 51.47594 -0.46158 96 ft 12 kts 269°
2026-05-06 18:49 51.47593 -0.46293 96 ft 12 kts 270°
2026-05-06 18:49 51.47593 -0.46424 96 ft 12 kts 270°
2026-05-06 18:49 51.47592 -0.46561 96 ft 14 kts 269°
2026-05-06 18:49 51.47592 -0.46736 96 ft 17 kts 269°
2026-05-06 18:50 51.47583 -0.46922 99 ft 16 kts 269°
2026-05-06 18:50 51.47582 -0.47102 99 ft 16 kts 269°
2026-05-06 18:50 51.47581 -0.47283 99 ft 16 kts 269°
2026-05-06 18:50 51.47581 -0.47429 99 ft 12 kts 270°
2026-05-06 18:51 51.47581 -0.47563 99 ft 12 kts 270°
2026-05-06 18:51 51.47581 -0.47687 99 ft 11 kts 269°
2026-05-06 18:51 51.47575 -0.47813 98 ft 12 kts 254°
2026-05-06 18:51 51.47520 -0.47880 97 ft 11 kts 193°
2026-05-06 18:52 51.47442 -0.47872 98 ft 12 kts 178°
2026-05-06 18:52 51.47352 -0.47877 96 ft 14 kts 181°
2026-05-06 18:52 51.47259 -0.47881 96 ft 12 kts 181°
2026-05-06 18:52 51.47182 -0.47884 96 ft 9 kts 182°
2026-05-06 18:53 51.47153 -0.47903 98 ft 2 kts 218°
2026-05-06 18:53 51.47151 -0.47907 95 ft 0 kts 222°